Regional Weather Roundup
Issued by NWS

Home | Current Version | Previous Version | Graphics & Text | Print | Product List | Glossary On
Versions: 1 2 3 4 5 6 7 8 9 10 11 12 13 14 15 16 17 18 19 20 21 22 23 24 25 26 27
000
ASUS45 KCYS 220610
RWRWY

WYOMING REGIONAL WEATHER ROUNDUP
NATIONAL WEATHER SERVICE CHEYENNE WY
1200 AM MDT SAT APR 22 2017

NOTE:  "FAIR" INDICATES FEW OR NO CLOUDS BELOW 12,000 FEET
WITH NO SIGNIFICANT WEATHER AND/OR OBSTRUCTIONS TO VISIBILITY.

WYZ001-220700-
YELLOWSTONE NATIONAL PARK

CITY           SKY/WX    TMP DP  RH WIND       PRES   REMARKS
LK YELLOWSTONE   N/A     23  20  88 CALM      30.27R
6HR MIN TEMP:  23; 6HR MAX TEMP:  34;

W YELLOWSTONE  NOT AVBL

$$
WYZ002>013-054>058-071-098>099-220700-
NORTHERN WYOMING

CITY           SKY/WX    TMP DP  RH WIND       PRES   REMARKS
JACKSON        MOCLDY    30  27  86 NW6       30.25R WCI  24
CODY           LGT RAIN  37  34  89 N12       30.25S WCI  29
GREYBULL       CLOUDY    42  37  82 NW21      30.19R
6HR MIN TEMP:  41; 6HR MAX TEMP:  43; 6HR PCP:  0.02;

WORLAND        LGT RAIN  40  39  97 N6        30.21R
6HR MIN TEMP:  39; 6HR MAX TEMP:  41; 6HR PCP:  0.13;

SHERIDAN       LGT RAIN  41  38  89 W8        30.24R
6HR MIN TEMP:  41; 6HR MAX TEMP:  44; 6HR PCP:  0.18;

BUFFALO        LGT RAIN  38  34  85 NW10      30.23S WCI  31
6HR MIN TEMP:  38; 6HR MAX TEMP:  43; 6HR PCP:  0.24;

GILLETTE       CLOUDY    43  42  97 N3        30.21R
6HR MIN TEMP:  43; 6HR MAX TEMP:  49; 6HR PCP: TRACE;

HULETT         FAIR      43  39  87 SW5       30.22S
NEWCASTLE      FAIR      41  37  87 S9        30.23R

$$
WYZ014>020-022>026-101>103-220700-
CENTRAL WYOMING

CITY           SKY/WX    TMP DP  RH WIND       PRES   REMARKS
BIG PINEY      FAIR      28  21  75 N10       30.22R WCI  19
6HR MIN TEMP:  28; 6HR MAX TEMP:  44;

PINEDALE       MOCLDY    30  23  74 NW10      30.22R WCI  21
DUBOIS         FAIR      32  21  64 W10       30.20R WCI  24
LANDER         CLOUDY    36  34  92 S3        30.21S
6HR MIN TEMP:  34; 6HR MAX TEMP:  39; 6HR PCP:  0.07;

RIVERTON       MOCLDY    35  34  96 SW7       30.22R WCI  29
6HR MIN TEMP:  35; 6HR MAX TEMP:  40;

CASPER         CLOUDY    38  34  85 W13       30.15S WCI  30
6HR MIN TEMP:  38; 6HR MAX TEMP:  42;

DOUGLAS        LGT RAIN  39  37  92 SE12      30.19R WCI  32
6HR MIN TEMP:  39; 6HR MAX TEMP:  45; 6HR PCP:  0.08;


$$
WYZ021-027>030-104>119-220700-
SOUTHERN WYOMING

CITY           SKY/WX    TMP DP  RH WIND       PRES   REMARKS
EVANSTON       FAIR      30  23  75 CALM      30.25F
6HR MIN TEMP:  28; 6HR MAX TEMP:  43;

KEMMERER         N/A     28  23  80 W6        30.24F WCI  22
FORT BRIDGER   FAIR      31  25  79 W12       30.28R WCI  22
ROCK SPRINGS   CLOUDY    37  25  61 W8        30.22R WCI  31
6HR MIN TEMP:  36; 6HR MAX TEMP:  47; 6HR PCP: TRACE;

DIXON            N/A     28  24  86 CALM      30.23S
RAWLINS        FAIR      30  27  88 NW5       30.19R WCI  25
6HR MIN TEMP:  30; 6HR MAX TEMP:  40; 6HR PCP: TRACE;

SARATOGA       FAIR      27  27 100 W6        30.20S WCI  20
LARAMIE        FLURRIES  31  30  96 SE15      30.17F WCI  20
6HR MIN TEMP:  31; 6HR MAX TEMP:  37; 6HR PCP:  0.08;

CHEYENNE       MIX PCPN  34  33  96 S7        30.21S WCI  28
6HR MIN TEMP:  34; 6HR MAX TEMP:  35; 6HR PCP:  0.02;

TORRINGTON     LGT RAIN  42  38  85 SW10      30.21S
6HR MIN TEMP:  42; 6HR MAX TEMP:  45; 6HR PCP:  0.01;

PINE BLUFFS    CLOUDY    36  36 100 SW9       30.23S WCI  29

$$




USA.gov is the U.S. government's official web portal to all federal, state and local government web resources and services.